Location: Chèvreville
(49.1099°N, 2.8495°E)
Time: 07:47:20
(UTC+00:00)

VELOX 1 - Pass Details

Date: 12 December 2023
Orbit: 608 x 622 km, 98.4° (Epoch: 24 February)

Event Time Altitude Azimuth Distance (km) Brightness Sun altitude
Rises 05:33:17 0° 143° (SE) 2,858 ? -18.6°
Reaches altitude 10° 05:35:32 10° 136° (SE) 1,959 ? -18.3°
Maximum altitude 05:39:29 39° 68° (ENE) 925 ? -17.6°
Drops below altitude 10° 05:43:29 10° 359° (N) 1,979 ? -17.0°
Enters shadow 05:45:15 - 353° (N) 2,677 ? -16.7°
